When you browse on this site, cookies collect data to enhance your experience and personalize the content and advertising you see.
Visit our Privacy Policy to learn more. By continuing to use the site, you agree to this use of cookies and data.
  • en Suisse
  • Liste des pays
  • À 7 jours
  • Température de l'eau
  • Carte météo
  • Widgets météo
  • user-avatar
    Se connecter

    Météo par heure à Jalalabad

    Ce jour, 21 Août, Mercredi

    Heure Température Précipitation Vent Pression Humidité
    00:00 +32°C° 0 mm 1 m/s 706 mmHg 50%
    01:00 +31°C° 0 mm 1 m/s 706 mmHg 52%
    02:00 +29°C° 0 mm 0 m/s 706 mmHg 54%
    03:00 +28°C° 0 mm 0 m/s 706 mmHg 55%
    04:00 +28°C° 0 mm 0 m/s 706 mmHg 55%
    05:00 +28°C° 0 mm 0 m/s 706 mmHg 58%
    06:00 +28°C° 0 mm 0 m/s 706 mmHg 53%
    07:00 +29°C° 0 mm 0 m/s 706 mmHg 49%
    08:00 +30°C° 0 mm 0 m/s 707 mmHg 44%
    09:00 +33°C° 0 mm 1 m/s 707 mmHg 38%
    10:00 +34°C° 0 mm 1 m/s 707 mmHg 32%
    11:00 +35°C° 0 mm 1 m/s 707 mmHg 26%
    12:00 +36°C° 0 mm 1 m/s 706 mmHg 22%
    13:00 +37°C° 0 mm 1 m/s 706 mmHg 19%
    14:00 +39°C° 0 mm 1 m/s 706 mmHg 16%
    15:00 +39°C° 0 mm 1 m/s 705 mmHg 15%
    16:00 +39°C° 0 mm 1 m/s 705 mmHg 15%
    17:00 +40°C° 0 mm 1 m/s 705 mmHg 14%
    18:00 +39°C° 0 mm 1 m/s 705 mmHg 18%
    19:00 +37°C° 0 mm 1 m/s 705 mmHg 22%
    20:00 +37°C° 0 mm 2 m/s 705 mmHg 26%
    21:00 +35°C° 0 mm 1 m/s 705 mmHg 31%
    22:00 +34°C° 0 mm 1 m/s 705 mmHg 36%
    23:00 +33°C° 0 mm 1 m/s 705 mmHg 42%

    Demain, 22 Août, Jeudi

    Heure Température Précipitation Vent Pression Humidité
    00:00 +33°C° 0 mm 1 m/s 705 mmHg 44%
    01:00 +30°C° 0 mm 0 m/s 705 mmHg 46%
    02:00 +30°C° 0 mm 0 m/s 704 mmHg 48%
    03:00 +29°C° 0 mm 0 m/s 705 mmHg 48%
    04:00 +29°C° 0 mm 0 m/s 705 mmHg 47%
    05:00 +28°C° 0 mm 0 m/s 705 mmHg 47%
    06:00 +29°C° 0 mm 0 m/s 705 mmHg 41%
    07:00 +32°C° 0 mm 1 m/s 706 mmHg 36%
    08:00 +33°C° 0 mm 1 m/s 706 mmHg 31%
    09:00 +34°C° 0 mm 1 m/s 706 mmHg 28%
    10:00 +35°C° 0 mm 1 m/s 706 mmHg 25%
    11:00 +36°C° 0 mm 1 m/s 706 mmHg 22%
    12:00 +37°C° 0 mm 1 m/s 706 mmHg 20%
    13:00 +39°C° 0 mm 2 m/s 706 mmHg 18%
    14:00 +40°C° 0 mm 2 m/s 706 mmHg 16%
    15:00 +40°C° 0 mm 3 m/s 705 mmHg 18%
    16:00 +40°C° 0 mm 3 m/s 705 mmHg 19%
    17:00 +41°C° 0 mm 4 m/s 705 mmHg 20%
    18:00 +39°C° 0 mm 3 m/s 705 mmHg 25%
    19:00 +38°C° 0 mm 3 m/s 705 mmHg 30%
    20:00 +36°C° 0 mm 2 m/s 705 mmHg 35%
    21:00 +36°C° 0 mm 2 m/s 705 mmHg 38%
    22:00 +35°C° 0 mm 2 m/s 706 mmHg 40%
    23:00 +35°C° 0 mm 2 m/s 706 mmHg 42%

    Après-demain, 23 Août, Vendredi

    Heure Température Précipitation Vent Pression Humidité
    00:00 +33°C° 0 mm 1 m/s 706 mmHg 45%
    01:00 +33°C° 0 mm 1 m/s 706 mmHg 47%
    02:00 +30°C° 0 mm 0 m/s 706 mmHg 49%
    03:00 +30°C° 0 mm 0 m/s 706 mmHg 51%
    04:00 +29°C° 0 mm 0 m/s 706 mmHg 52%
    05:00 +29°C° 0 mm 0 m/s 705 mmHg 53%
    06:00 +30°C° 0 mm 0 m/s 706 mmHg 50%
    07:00 +32°C° 0 mm 1 m/s 706 mmHg 47%
    08:00 +33°C° 0 mm 1 m/s 706 mmHg 43%
    09:00 +34°C° 0 mm 1 m/s 706 mmHg 41%
    10:00 +35°C° 0 mm 1 m/s 706 mmHg 38%
    11:00 +37°C° 0 mm 2 m/s 706 mmHg 36%
    12:00 +38°C° 0 mm 2 m/s 706 mmHg 33%
    13:00 +39°C° 0 mm 2 m/s 706 mmHg 30%
    14:00 +40°C° 0 mm 3 m/s 705 mmHg 27%
    15:00 +40°C° 0 mm 3 m/s 705 mmHg 27%
    16:00 +41°C° 0 mm 4 m/s 705 mmHg 27%
    17:00 +41°C° 0 mm 4 m/s 705 mmHg 27%
    18:00 +40°C° 0 mm 4 m/s 705 mmHg 31%
    19:00 +38°C° 0 mm 3 m/s 705 mmHg 35%
    20:00 +37°C° 0 mm 3 m/s 705 mmHg 40%
    21:00 +36°C° 0 mm 2 m/s 705 mmHg 42%
    22:00 +36°C° 0 mm 2 m/s 706 mmHg 44%
    23:00 +34°C° 0 mm 1 m/s 706 mmHg 46%

    24 Août, Samedi

    Heure Température Précipitation Vent Pression Humidité
    00:00 +34°C° 0 mm 1 m/s 706 mmHg 48%
    01:00 +31°C° 0 mm 0 m/s 705 mmHg 50%
    02:00 +31°C° 0 mm 0 m/s 705 mmHg 52%
    03:00 +30°C° 0 mm 0 m/s 705 mmHg 53%
    04:00 +30°C° 0 mm 0 m/s 705 mmHg 54%
    05:00 +30°C° 0 mm 0 m/s 705 mmHg 55%
    06:00 +30°C° 0 mm 0 m/s 705 mmHg 51%
    07:00 +31°C° 0 mm 0 m/s 706 mmHg 47%
    08:00 +31°C° 0 mm 0 m/s 706 mmHg 43%
    09:00 +35°C° 0 mm 1 m/s 706 mmHg 40%
    10:00 +36°C° 0 mm 1 m/s 706 mmHg 37%
    11:00 +37°C° 0 mm 1 m/s 706 mmHg 34%
    12:00 +39°C° 0 mm 2 m/s 706 mmHg 31%
    13:00 +40°C° 0 mm 2 m/s 705 mmHg 27%
    14:00 +41°C° 0 mm 2 m/s 705 mmHg 24%
    15:00 +41°C° 0 mm 2 m/s 705 mmHg 23%
    16:00 +41°C° 0 mm 2 m/s 704 mmHg 23%
    17:00 +42°C° 0 mm 3 m/s 704 mmHg 23%
    18:00 +40°C° 0 mm 3 m/s 704 mmHg 26%
    19:00 +39°C° 0 mm 3 m/s 704 mmHg 30%
    20:00 +38°C° 0 mm 3 m/s 705 mmHg 34%
    21:00 +37°C° 0 mm 2 m/s 705 mmHg 37%
    22:00 +37°C° 0 mm 2 m/s 705 mmHg 39%
    23:00 +35°C° 0 mm 1 m/s 705 mmHg 41%

    25 Août, Dimanche

    Heure Température Précipitation Vent Pression Humidité
    00:00 +35°C° 0 mm 1 m/s 705 mmHg 44%
    01:00 +34°C° 0 mm 1 m/s 705 mmHg 46%
    02:00 +34°C° 0 mm 1 m/s 705 mmHg 48%
    03:00 +33°C° 0 mm 1 m/s 705 mmHg 50%
    04:00 +31°C° 0 mm 0 m/s 705 mmHg 52%
    05:00 +30°C° 0 mm 0 m/s 705 mmHg 54%
    06:00 +31°C° 0 mm 0 m/s 705 mmHg 51%
    07:00 +33°C° 0 mm 1 m/s 705 mmHg 48%
    08:00 +34°C° 0 mm 1 m/s 706 mmHg 44%
    09:00 +35°C° 0 mm 1 m/s 706 mmHg 42%
    10:00 +37°C° 0 mm 2 m/s 706 mmHg 39%
    11:00 +38°C° 0 mm 2 m/s 706 mmHg 37%
    12:00 +39°C° 0 mm 3 m/s 706 mmHg 34%
    13:00 +40°C° 0 mm 3 m/s 705 mmHg 31%
    14:00 +42°C° 0 mm 4 m/s 705 mmHg 29%
    15:00 +42°C° 0 mm 4 m/s 705 mmHg 29%
    16:00 +42°C° 0 mm 4 m/s 705 mmHg 29%
    17:00 +42°C° 0 mm 4 m/s 705 mmHg 29%
    18:00 +41°C° 0.1 mm 4 m/s 705 mmHg 32%
    19:00 +38°C° 0.1 mm 3 m/s 705 mmHg 36%
    20:00 +37°C° 0.1 mm 3 m/s 706 mmHg 39%
    21:00 +37°C° 0.1 mm 2 m/s 706 mmHg 41%
    22:00 +36°C° 0.1 mm 2 m/s 706 mmHg 43%
    23:00 +36°C° 0.1 mm 2 m/s 706 mmHg 45%

    26 Août, Lundi

    Heure Température Précipitation Vent Pression Humidité
    00:00 +34°C° 0.1 mm 1 m/s 706 mmHg 47%
    01:00 +34°C° 0.1 mm 1 m/s 706 mmHg 49%
    02:00 +33°C° 0.1 mm 1 m/s 706 mmHg 51%
    03:00 +33°C° 0.2 mm 1 m/s 706 mmHg 52%
    04:00 +32°C° 0.2 mm 1 m/s 706 mmHg 54%
    05:00 +31°C° 0.2 mm 1 m/s 706 mmHg 56%
    06:00 +32°C° 0.3 mm 1 m/s 706 mmHg 55%
    07:00 +32°C° 0.3 mm 1 m/s 706 mmHg 54%
    08:00 +32°C° 0.3 mm 1 m/s 707 mmHg 53%
    09:00 +33°C° 0 mm 1 m/s 707 mmHg 50%
    10:00 +36°C° 0 mm 2 m/s 707 mmHg 47%
    11:00 +37°C° 0 mm 2 m/s 707 mmHg 44%
    12:00 +38°C° 0 mm 3 m/s 706 mmHg 40%
    13:00 +39°C° 0 mm 3 m/s 706 mmHg 36%
    14:00 +40°C° 0 mm 3 m/s 706 mmHg 32%
    15:00 +41°C° 0 mm 4 m/s 706 mmHg 32%
    16:00 +41°C° 0 mm 4 m/s 705 mmHg 32%
    17:00 +41°C° 0 mm 4 m/s 705 mmHg 32%
    18:00 +40°C° 0.1 mm 4 m/s 705 mmHg 36%
    19:00 +38°C° 0.1 mm 3 m/s 705 mmHg 41%
    20:00 +37°C° 0.1 mm 3 m/s 706 mmHg 45%
    21:00 +36°C° 0 mm 2 m/s 706 mmHg 47%
    22:00 +36°C° 0 mm 2 m/s 706 mmHg 49%
    23:00 +34°C° 0 mm 1 m/s 706 mmHg 51%
    Voir plus